STARLINK-35754, 67054

Orbit data source: Space-Track

STARLINK-35754, 67054 is a payload satellite owned by SpaceX/Seattle (US) in LEO that was launched on Thu, 11 Dec 2025 UTC via an FALCON 9 launch vehicle from the Air Force Eastern Test Range (AFETR). Payload-class satellites include a variety of spacecraft equipped with specific instruments for various scientific and technological missions. These include communications satellites like Starlink; space stations such as the ISS; scientific satellites like the Hubble; Earth observation satellites from companies like Planet Labs, Umbra, and HawkEye 360; GPS; miniature CubeSats for education and research; and military/defense satellites.

Loading next visibility...
Identifier
67054, 2025-294AA
Orbit
LEO
Country
Flag of USUS
Related business
Manufacturer
SpaceX/Seattle
Mission
Operational Commercial Communications
Bus & Motor
STARLINK V2MO, Unknown motor
Mass
575 kg wet, ~530 kg dry
Launch date (UTC)
2025-12-11 (6 months ago)
Launch vehicle
FALCON 9
Launch site
Air Force Eastern Test Range (AFETR)
Object type
Payload
Rocket body
Debris
Shape & HBR
Box + 2 Pan, 17.7 m
Radar Cross Section
36.964 m², Large (>1 m²)

Expand to show TLE details & history
Last TLE update: 11 hours ago

TLE from 11 hours ago
0 STARLINK-35754
1 67054U 25294AA  26171.37054572  .00012803  00000-0  47378-3 0  9990
2 67054  43.0010 178.1208 0001647 275.9257  84.1407 15.27593372 30500
Epoch: 2026-06-20T08:53Z
TLE epoch observation values (Epoch: 2026-06-20T08:53:35.150Z)
Latitude
-0°
Longitude
136.1382°
Altitude
482.669 km
Speed
7.626 km/s
True Right ascension
11h 52m 28s
True Declination
0° 00' 00"
Sunlit
Object was in daylight at epoch
Visualization orbit readout
Latitude
Unknown
Longitude
Unknown
Altitude
Unknown
Speed
Unknown
Apparent Right ascension
Unknown
Apparent Declination
Unknown
Sunlit
N/A
Visualization observer readout
Local Sidereal Time
07:17:12
Azimuth
Unknown
Elevation
Unknown
Doppler factor
Unknown
Orbital elements
Apogee altitude
486.084 km
Perigee altitude
483.824 km
Semi-major axis
6,863.091 km
Eccentricity
0.00016
Inclination
43.001°
RAAN
178.1208°
Arg. of periapsis
275.9257°
True anomaly
84.15948°
Mean anomaly
84.1407°
Eccentric anomaly
84.15009°
Mean motion
3.81736 °/min
Orbital period
94.31 mins
BSTAR
0.00047378
Loading maneuver chart data...
Computing Atmospheric mass density...
Loading historical data...
Loading historical data...
Loading historical data...
Loading historical data...
Loading historical data...
Loading historical data...
Loading historical data...

Documentation

Showing up to 5 results
|